{"data":{"norad_id":60349,"epoch":"2026-09-21T07:42:26.671392Z","epoch_age_seconds":114641,"freshness":"FRESH","line1":"1 60349U 24136W   26264.32114203  .00001447  00000+0  53983-4 0  9991","line2":"2 60349  53.1573 242.2216 0002644  75.5209 284.6087 15.34397605119684","mean_motion":15.34397605,"eccentricity":0.0002644,"inclination_deg":53.1573,"raan_deg":242.2216,"arg_perigee_deg":75.5209,"mean_anomaly_deg":284.6087,"bstar":5.3983e-5,"rev_number":11968,"period_min":93.847904565779,"perigee_km":460.90163861946,"apogee_km":464.51907870272,"semimajor_km":6840.8473586611,"source":"CELESTRAK","updated_at":"2026-09-22T09:00:49.222890Z"}}